Regional Weather Roundup
Issued by NWS

Current Version | Previous Version | Text Only | Print | Product List | Glossary On
Versions: 1 2 3 4 5 6 7 8 9 10 11 12 13 14 15 16 17 18 19 20 21 22 23 24 25 26 27 28 29 30 31 32 33 34 35 36 37 38 39 40 41 42 43 44 45 46 47 48 49 50
000
ASUS46 KSTO 152215
RWRCA

NORTHERN AND CENTRAL CA REGIONAL WEATHER ROUNDUP
NATIONAL WEATHER SERVICE SACRAMENTO CA
200 PM PST SAT DEC 15 2018

NOTE: FAIR INDICATES FEW OR NO CLOUDS BELOW 12,000 FEET WITH NO
SIGNIFICANT WEATHER AND/OR OBSTRUCTIONS TO VISIBILITY.

CAZ001-003-152300-
NORTHWEST AREA

CITY           SKY/WX    TMP DP  RH WIND       PRES   REMARKS
CRESCENT CITY  CLOUDY    55  46  71 S12       29.89F
UKIAH          CLOUDY    52  49  89 CALM      30.01F
$$

CAZ006-505>513-152300-
BAY AREA

CITY           SKY/WX    TMP DP  RH WIND       PRES   REMARKS
SANTA ROSA     CLOUDY    58  52  80 S8        30.02F
SAN RAFAEL     N/A       56  MM  MM MISG
NAPA           CLOUDY    57  50  77 E13       30.04F
CONCORD        CLOUDY    60  47  61 NE5       30.04F
OAKLAND CITY   N/A       62  MM  MM MISG
OAKLAND        CLOUDY    60  50  69 S7        30.04F
SAN FRAN CITY  N/A       59  MM  64 MISG
SAN FRAN ARPT  CLOUDY    58  50  75 E6        30.02F
LIVERMORE      CLOUDY    58  49  72 E9        30.04F HAZE
HAYWARD        CLOUDY    64  48  56 SE7       30.03F
REDWOOD CITY   N/A       64  MM  63 MISG
MOFFETT ARPT   CLOUDY    65  49  56 SE10      30.03F
SAN JOSE ARPT  CLOUDY    65  48  54 S6        30.04F
$$
CAZ034-037-514>518-152300-
CENTRAL COAST

CITY           SKY/WX    TMP DP  RH WIND       PRES   REMARKS
WATSONVILLE    MOSUNNY   62  45  53 CALM      30.07F
SALINAS        MOSUNNY   62  46  55 W3        30.06F
MONTEREY       MOSUNNY   61  46  57 NW6       30.07F
SAN LUIS OBISP SUNNY     64  48  56 NW7       30.06F
SANTA MARIA    MOSUNNY   66  50  56 W6        30.07F
$$
CAZ015-016-152300-
NORTHERN SACRAMENTO VALLEY

CITY           SKY/WX    TMP DP  RH WIND       PRES   REMARKS
REDDING        LGT RAIN  48  46  93 E5        30.05S FOG
RED BLUFF      CLOUDY    48  44  86 N5        30.07F
OROVILLE       CLOUDY    52  50  93 W5        30.08S
$$
CAZ016>018-152300-
SOUTHERN SACRAMENTO VALLEY

CITY           SKY/WX    TMP DP  RH WIND       PRES   REMARKS
AUBURN         SUNNY     57  41  54 S8        30.05F
BEALE AFB      CLOUDY    56  49  80 CALM      30.04F
LINCOLN        FAIR      55  48  76 S3        30.05F
MARYSVILLE     CLOUDY    56  51  84 SW3       30.06F
SAC INTL ARPT  CLOUDY    56  49  77 VRB3      30.05F
MATHER AIRPORT PTSUNNY   59  43  55 CALM      30.05F
DOWNTOWN SAC   N/A       60  MM  MM MISG
SAC EXEC ARPT  PTSUNNY   59  45  59 VRB3      30.05F
VACAVILLE      CLOUDY    57  51  80 N3        30.07F
TRAVIS AFB     CLOUDY    57  49  75 E5        30.05F
$$
CAZ019>021-152300-
SAN JOAQUIN VALLEY

CITY           SKY/WX    TMP DP  RH WIND       PRES   REMARKS
STOCKTON       CLOUDY    61  48  62 S6        30.05F
MODESTO        PTSUNNY   61  44  53 SE5       30.06F
MERCED         MOSUNNY   59  48  67 S7        30.06F
LEMOORE        PTSUNNY   62  47  57 CALM      30.08F
FRESNO         PTSUNNY   63  43  48 CALM      30.07F
HANFORD        SUNNY     64  46  52 W3        30.08F
PORTERVILLE    SUNNY     65  42  43 N6        30.08F
BAKERSFIELD    SUNNY     65  41  41 N8        30.07S
$$
CAZ011-012-071-152300-
NORTHERN MOUNTAINS

CITY           SKY/WX    TMP DP  RH WIND       PRES   REMARKS
YREKA          CLOUDY    46  35  65 NE7       29.96F
MOUNT SHASTA   CLOUDY    43  40  89 E8        29.99F
ALTURAS        CLOUDY    48  37  65 S13       30.03R
$$
CAZ011-012-071-152300-
SIERRA NEVADA MTNS

CITY           SKY/WX    TMP DP  RH WIND       PRES   REMARKS
BLUE CANYON    PTSUNNY   47  18  31 S12G20    30.10F
TRUCKEE          N/A     46  14  27 MISG      30.09F
TAHOE VLY ARPT CLOUDY    50  14  23 S9        30.07F
MAMMOTH LAKES  FAIR      34  24  65 SE7       30.16F WCI  28
$$



USA.gov is the U.S. government's official web portal to all federal, state and local government web resources and services.